Location: Unspecified
(41.1850°N, 73.2650°W)
Time: 14:33:46
(UTC+00:00)

ARIANE 6 FM1 Upper Stage - Pass Details

Date: 19 February 2026
Orbit: 523 x 607 km, 62.0° (Epoch: 6 March)

Event Time Altitude Azimuth Distance (km) Brightness Sun altitude
Rises 00:04:29 0° 320° (NW) 2,656 6.7 -18.2°
Reaches altitude 10° 00:06:41 10° 317° (NW) 1,766 5.8 -18.6°
Maximum altitude 00:10:36 62° 236° (SW) 594 2.9 -19.4°
Enters shadow 00:12:50 24° 162° (SSE) 1,128 4.0 -19.8°
